[[{"header":{"parameterUnit":"m.s-1","parameterCategory":1,"la1":30.2991,"la2":30.254,"lo1":-89.0895,"lo2":-89.0444,"dy":0.0017,"dx":0.0017,"nx":28,"ny":28,"refTime":"2025-04-24T03:00:00:Z","depth":0,"parameterNumber":2,"parameterNumberName":"U-component_of_WINDS"},"data":[0,0,0,0,0,0,0,0,0,0,0,0,0,0,0,0,0,0,0,0,0,0,0,0,0,0,0,0,0,0,0,0,0,0,0,0,0,0,0,0,0,0,0,0,0,0,0,0,0,0,0,0,0,0,0,0,0,0,-2.5857,-2.5857,0,-2.5848,-2.5848,-2.5848,-2.5814,-2.5813,-2.5812,-2.5811,-2.58,-2.5801,-2.5801,0,0,0,0,0,0,0,0,0,0,0,0,0,-2.5846,-2.5846,-2.5857,-2.5857,-2.5857,-2.5848,-2.5848,-2.5848,-2.5814,-2.5813,-2.5812,-2.5811,-2.58,-2.5801,-2.5801,0,0,0,0,0,0,0,0,0,0,0,0,0,-2.5845,-2.5846,-2.5857,-2.5839,-2.5837,-2.5848,-2.5848,-2.5848,-2.5814,-2.5813,-2.5812,-2.5811,-2.58,-2.5801,-2.5801,-2.5829,0,0,-2.5803,-2.5804,0,0,0,0,0,0,0,0,-2.5845,-2.5845,-2.5842,-2.584,-2.5838,-2.5831,-2.584,-2.5841,-2.5814,-2.5823,-2.5811,-2.581,-2.5811,-2.5811,-2.5812,-2.5828,-2.5828,-2.5803,-2.5804,-2.5804,-2.5804,0,0,0,0,0,0,0,-2.5845,-2.5846,-2.5853,-2.5842,-2.584,-2.5831,-2.583,-2.584,-2.5824,-2.5822,-2.5819,-2.5819,-2.581,-2.5811,-2.5811,-2.5827,-2.5803,-2.5804,-2.5804,-2.5805,-2.5866,-2.5868,0,0,0,0,0,0,-2.5848,-2.5846,-2.5854,-2.5853,-2.5839,-2.5832,-2.5831,-2.5834,-2.5823,-2.5821,-2.582,-2.5817,-2.5811,-2.5811,-2.5811,-2.5841,-2.5804,-2.5805,-2.5805,-2.5865,-2.5867,-2.5868,0,0,0,0,0,0,-2.5848,-2.5849,-2.5854,-2.5849,-2.5849,-2.5834,-2.5838,-2.5835,-2.5836,-2.5822,-2.5819,-2.5824,-2.581,-2.581,-2.5825,-2.584,-2.5805,-2.5806,-2.5864,-2.5866,-2.5867,-2.5903,0,0,0,0,0,0,-2.5847,-2.5849,-2.5859,-2.5849,-2.5849,-2.5868,-2.5839,-2.5835,-2.5837,-2.5834,-2.5825,-2.5822,-2.5809,-2.5824,-2.5825,-2.5841,-2.5806,-2.5862,-2.5865,-2.5867,-2.59,-2.5906,-2.5911,0,0,0,0,0,-2.5847,-2.5869,-2.5859,-2.586,-2.5861,-2.5869,-2.5869,-2.5853,-2.5838,-2.5848,-2.584,-2.5822,-2.584,-2.5826,-2.5827,-2.5843,-2.5861,-2.5864,-2.5867,-2.5898,-2.5905,-2.591,0,0,0,0,0,0,-2.5879,-2.5867,-2.5856,-2.5875,-2.5874,-2.5863,-2.5874,-2.5861,-2.5863,-2.5859,-2.584,-2.5839,-2.5856,-2.5851,-2.5836,-2.5869,-2.5847,-2.5851,-2.5871,-2.5877,-2.5882,-2.5882,-2.5807,0,0,0,0,0,-2.5888,-2.5896,-2.5885,-2.5903,-2.5903,-2.5889,-2.5892,-2.5881,-2.5878,-2.5876,-2.5869,-2.5866,-2.5871,-2.5874,-2.5878,-2.5901,-2.5898,-2.5913,-2.5918,-2.5922,-2.5924,-2.5936,-2.5942,-2.5877,-2.5877,-2.5877,0,0,-2.5907,-2.5902,-2.5907,-2.5909,-2.5906,-2.5914,-2.5888,-2.5898,-2.5903,-2.5877,-2.589,-2.5886,-2.5882,-2.5901,-2.5909,-2.5897,-2.5942,-2.5926,-2.5929,-2.5929,-2.5939,-2.5946,-2.5951,-2.5879,-2.5879,-2.5879,0,0,-2.5945,-2.5942,-2.5957,-2.5955,-2.5952,-2.5943,-2.5947,-2.594,-2.5935,-2.5949,-2.593,-2.5937,-2.5946,-2.5944,-2.5944,-2.5985,-2.5969,-2.5987,-2.6013,-2.6025,-2.603,-2.6034,-2.6047,-2.6053,-2.599,-2.599,-2.599,0,-2.5968,-2.5979,-2.5966,-2.5977,-2.5978,-2.5957,-2.5972,-2.5971,-2.5969,-2.5971,-2.5959,-2.597,-2.5966,-2.5984,-2.5995,-2.5996,-2.5999,-2.5986,-2.603,-2.6035,-2.6038,-2.6051,-2.6056,-2.5992,-2.5992,-2.5992,-2.5992,0,-2.6008,-2.6017,-2.6029,-2.6028,-2.6032,-2.6045,-2.6033,-2.6038,-2.6028,-2.6021,-2.6036,-2.6031,-2.6033,-2.6038,-2.6027,-2.6055,-2.6048,-2.6034,-2.6011,-2.6047,-2.6058,-2.6063,-2.5995,-2.5994,-2.5994,-2.5993,0,0,-2.6061,-2.6056,-2.606,-2.606,-2.6057,-2.6063,-2.6076,-2.6079,-2.6084,-2.6085,-2.6094,-2.6104,-2.6091,-2.6091,-2.6081,-2.6092,-2.6124,-2.6076,-2.6076,-2.6084,-2.6153,-2.6162,-2.6168,-2.6115,-2.6116,-2.6117,-2.6153,0,-2.6096,-2.6117,-2.6106,-2.6128,-2.6136,-2.6118,-2.613,-2.6129,-2.6124,-2.613,-2.6124,-2.6131,-2.6114,-2.6114,-2.6125,-2.6118,-2.6137,-2.6116,-2.6122,-2.6123,-2.6121,-2.6174,-2.6183,-2.6217,-2.6158,-2.6158,-2.6159,0,-2.6138,-2.6141,-2.6164,-2.6161,-2.6164,-2.6174,-2.6177,-2.6183,-2.6183,-2.6179,-2.6181,-2.6169,-2.6181,-2.6162,-2.6179,-2.6164,-2.6167,-2.6165,-2.6166,-2.6163,-2.6141,-2.6171,-2.6228,-2.6232,-2.6166,-2.6165,-2.6165,0,-2.6172,-2.6183,-2.6198,-2.6199,-2.6196,-2.6203,-2.6203,-2.6201,-2.6205,-2.6208,-2.621,-2.6215,-2.6216,-2.6221,-2.6211,-2.6197,-2.6229,-2.6208,-2.6224,-2.6224,-2.6228,-2.6228,-2.6284,-2.6235,-2.6235,-2.6235,-2.6235,0,-2.621,-2.6224,-2.6214,-2.6223,-2.6239,-2.6228,-2.6244,-2.6241,-2.6241,-2.6249,-2.6236,-2.6244,-2.6231,-2.6238,-2.6231,-2.6245,-2.6247,-2.6243,-2.624,-2.6243,-2.6243,-2.6242,-2.6238,-2.6236,-2.6236,-2.6236,-2.6236,0,-2.6249,-2.6243,-2.6258,-2.6255,-2.6255,-2.6267,-2.6264,-2.6272,-2.6268,-2.6279,-2.6281,-2.6274,-2.6281,-2.6273,-2.628,-2.6275,-2.6294,-2.629,-2.6294,-2.6292,-2.6308,-2.6306,-2.6363,-2.637,-2.6319,-2.6319,-2.632,0,-2.6272,-2.6283,-2.6282,-2.6287,-2.6287,-2.6296,-2.63,-2.6291,-2.6295,-2.6297,-2.6305,-2.6313,-2.6317,-2.6331,-2.6326,-2.6331,-2.6325,-2.6345,-2.6325,-2.6328,-2.6323,-2.6321,-2.6322,-2.6348,-2.6348,-2.6349,-2.6349,0,-2.6313,-2.631,-2.6317,-2.6323,-2.6328,-2.6332,-2.6335,-2.634,-2.6331,-2.6337,-2.6346,-2.635,-2.6358,-2.6365,-2.637,-2.6369,-2.6357,-2.6357,-2.636,-2.6361,-2.6362,-2.636,-2.6302,-2.6354,-2.6354,-2.6353,-2.6353,-2.6353,-2.6344,-2.6353,-2.6354,-2.6362,-2.6364,-2.6368,-2.6376,-2.6373,-2.638,-2.6387,-2.6382,-2.6392,-2.6393,-2.6398,-2.6399,-2.6407,-2.6398,-2.6404,-2.6405,-2.6406,-2.6407,-2.6364,-2.6408,-2.6408,-2.6408,-2.6408,-2.6408,0,-2.6382,-2.6383,-2.6391,-2.6396,-2.6403,-2.6395,-2.6398,-2.6404,-2.6413,-2.6416,-2.6422,-2.6432,-2.644,-2.6437,-2.6443,-2.645,-2.6445,-2.6452,-2.645,-2.645,-2.6415,-2.6411,-2.6456,-2.6456,-2.6456,-2.6456,-2.6456,-2.6456,-2.6403,-2.6418,-2.6416,-2.6432,-2.6433,-2.6443,-2.6446,-2.6449,-2.6452,-2.6464,-2.647,-2.6469,-2.647,-2.6477,-2.6483,-2.6482,-2.6485,-2.6493,-2.649,-2.6457,-2.6452,-2.6447,-2.6443,-2.6494,-2.6494,-2.6523,-2.6523,-2.6524]},{"header":{"parameterUnit":"m.s-1","parameterCategory":1,"la1":30.2991,"la2":30.254,"lo1":-89.0895,"lo2":-89.0444,"dy":0.0017,"dx":0.0017,"nx":28,"ny":28,"refTime":"2025-04-24T03:00:00:Z","depth":0,"parameterNumber":3,"parameterNumberName":"V-component_of_WINDS"},"data":[0,0,0,0,0,0,0,0,0,0,0,0,0,0,0,0,0,0,0,0,0,0,0,0,0,0,0,0,0,0,0,0,0,0,0,0,0,0,0,0,0,0,0,0,0,0,0,0,0,0,0,0,0,0,0,0,0,0,2.486,2.4861,0,2.4919,2.4919,2.492,2.4997,2.4998,2.5,2.5001,2.5058,2.5059,2.5059,0,0,0,0,0,0,0,0,0,0,0,0,0,2.4816,2.4816,2.486,2.4861,2.4862,2.4919,2.4919,2.492,2.4997,2.4998,2.5,2.5001,2.5058,2.5059,2.5059,0,0,0,0,0,0,0,0,0,0,0,0,0,2.4851,2.4817,2.486,2.4907,2.4912,2.4918,2.4919,2.492,2.4996,2.4998,2.5,2.5002,2.5058,2.5059,2.5059,2.5024,0,0,2.5061,2.5061,0,0,0,0,0,0,0,0,2.4849,2.4852,2.4899,2.4904,2.4909,2.4953,2.4925,2.4955,2.4996,2.4964,2.5001,2.5003,2.5021,2.5025,2.5032,2.5027,2.5029,2.5061,2.5061,2.5061,2.5061,0,0,0,0,0,0,0,2.4846,2.485,2.4883,2.49,2.4906,2.4925,2.4932,2.4931,2.4981,2.4967,2.4973,2.4979,2.5024,2.5031,2.5034,2.503,2.5061,2.5061,2.5061,2.5062,2.5002,2.5,0,0,0,0,0,0,2.4837,2.4848,2.4882,2.4885,2.4883,2.4924,2.4932,2.4937,2.4982,2.499,2.4977,2.4982,2.5029,2.5033,2.5036,2.5,2.5061,2.5062,2.5062,2.5004,2.5002,2.5,0,0,0,0,0,0,2.4836,2.4839,2.4879,2.4868,2.4875,2.4923,2.4927,2.4937,2.4944,2.4989,2.4998,2.4975,2.5031,2.5035,2.5027,2.5003,2.5062,2.5062,2.5006,2.5003,2.5001,2.4925,0,0,0,0,0,0,2.4834,2.4838,2.4825,2.4867,2.4875,2.4869,2.4926,2.4937,2.4944,2.4952,2.4989,2.4997,2.5033,2.5026,2.5028,2.5004,2.5063,2.5009,2.5005,2.5002,2.493,2.492,2.4911,0,0,0,0,0,2.4832,2.48,2.4824,2.4828,2.4859,2.4867,2.4872,2.4914,2.4942,2.493,2.496,2.4996,2.5005,2.5025,2.5027,2.5003,2.501,2.5006,2.5002,2.4934,2.4922,2.4912,0,0,0,0,0,0,2.4752,2.4806,2.4833,2.4814,2.4836,2.488,2.4865,2.4899,2.4912,2.4918,2.497,2.4978,2.4964,2.4983,2.5003,2.4973,2.5013,2.5009,2.4961,2.495,2.4941,2.4936,2.5063,0,0,0,0,0,2.4733,2.4735,2.4782,2.4761,2.477,2.4816,2.4821,2.4852,2.4876,2.4885,2.4914,2.4936,2.4944,2.4948,2.4958,2.4934,2.4944,2.4919,2.491,2.4902,2.4898,2.4889,2.4879,2.4986,2.4986,2.4986,0,0,2.4692,2.4722,2.4719,2.4745,2.4766,2.4767,2.4823,2.4821,2.4823,2.4885,2.4879,2.4902,2.493,2.4914,2.4908,2.4929,2.4871,2.4896,2.489,2.489,2.4883,2.4873,2.4864,2.4983,2.4983,2.4984,0,0,2.4618,2.464,2.4626,2.4646,2.4677,2.4708,2.4705,2.4745,2.4763,2.4759,2.4806,2.4809,2.4821,2.484,2.4851,2.4788,2.4822,2.4789,2.4741,2.4731,2.4723,2.4716,2.4694,2.4686,2.4785,2.4785,2.4785,0,2.4562,2.4567,2.4614,2.4611,2.4621,2.4679,2.4666,2.4683,2.4714,2.4721,2.4744,2.4763,2.4786,2.4776,2.4761,2.4768,2.4767,2.4785,2.472,2.4714,2.4707,2.4688,2.4679,2.4781,2.4781,2.4782,2.4782,0,2.4498,2.4501,2.4485,2.4517,2.4526,2.4517,2.4564,2.4567,2.4598,2.4627,2.4624,2.4653,2.4671,2.4672,2.4701,2.4667,2.468,2.4711,2.4752,2.4692,2.4675,2.4667,2.4775,2.4776,2.4778,2.4779,0,0,2.4373,2.4433,2.4427,2.4443,2.4483,2.4486,2.4481,2.45,2.4502,2.4523,2.4521,2.4532,2.4562,2.4575,2.4607,2.4599,2.4549,2.4632,2.4633,2.4616,2.4515,2.4492,2.4482,2.4573,2.4572,2.4571,2.4514,0,2.4307,2.4302,2.4346,2.4329,2.4333,2.439,2.4386,2.441,2.4437,2.4445,2.4476,2.4483,2.4522,2.453,2.4525,2.4556,2.453,2.4561,2.4572,2.4571,2.4563,2.4473,2.4447,2.4391,2.4507,2.4506,2.4505,0,2.4229,2.4248,2.4231,2.4275,2.4278,2.4273,2.4296,2.4302,2.4332,2.4353,2.4368,2.4406,2.4406,2.4445,2.4445,2.4466,2.4473,2.449,2.4489,2.4491,2.4534,2.4473,2.4374,2.4366,2.4494,2.4495,2.4496,0,2.4141,2.4162,2.4156,2.4167,2.4217,2.4213,2.4234,2.4265,2.4275,2.4295,2.4302,2.432,2.433,2.4345,2.4387,2.4412,2.4383,2.4426,2.4401,2.44,2.4391,2.4391,2.4293,2.4396,2.4396,2.4396,2.4396,0,2.4062,2.405,2.4117,2.4113,2.4102,2.4153,2.4141,2.4167,2.4196,2.4199,2.4248,2.425,2.4306,2.4314,2.4348,2.4344,2.4348,2.4365,2.4374,2.4361,2.4359,2.4366,2.4371,2.4394,2.4394,2.4395,2.4395,0,2.3961,2.4005,2.4003,2.4051,2.4063,2.4053,2.4095,2.4094,2.4126,2.4129,2.4133,2.4183,2.4195,2.424,2.4262,2.4285,2.4271,2.4288,2.4261,2.4267,2.424,2.4242,2.4142,2.4133,2.4241,2.424,2.4239,0,2.3908,2.3901,2.395,2.3956,2.3975,2.3983,2.3994,2.4045,2.4054,2.4089,2.4084,2.4101,2.4117,2.4135,2.4173,2.4192,2.421,2.4174,2.4213,2.42,2.421,2.421,2.4211,2.4165,2.4164,2.4163,2.4162,0,2.381,2.3833,2.3847,2.3869,2.3881,2.39,2.3923,2.3925,2.3982,2.399,2.4004,2.4017,2.4042,2.4058,2.4084,2.4106,2.4143,2.415,2.4145,2.4131,2.4116,2.4125,2.4238,2.4151,2.4152,2.4153,2.4154,2.4154,2.3733,2.373,2.3764,2.3778,2.3801,2.3822,2.3824,2.3857,2.387,2.3895,2.3924,2.3935,2.3968,2.4006,2.4026,2.4035,2.4056,2.4049,2.4047,2.4045,2.4039,2.4115,2.404,2.404,2.4041,2.4041,2.4041,0,2.3638,2.3664,2.3676,2.3707,2.3719,2.3755,2.3783,2.379,2.3799,2.3827,2.3843,2.386,2.3877,2.3918,2.3939,2.3939,2.3957,2.3943,2.3944,2.3948,2.4018,2.4021,2.3928,2.3928,2.3928,2.3928,2.3929,2.3929,2.359,2.3587,2.3615,2.3625,2.3651,2.3663,2.3676,2.3695,2.3718,2.3735,2.375,2.3777,2.3811,2.3835,2.3853,2.3865,2.3871,2.3851,2.3868,2.3932,2.3943,2.3953,2.3956,2.3852,2.3851,2.3798,2.3797,2.3797]}]]